x

Yucatan Basin - 120 Nm Ese Of Cozumel, Mx (42056) Wave Buoy

7:50 - Thu 30th Mar 2017 All times are CST. -6 hours from GMT.

  • Sig Wave height 3.9ft
  • Swell Direction
  • Peak Period 7s
  • Average Period 4s
  • Wind
    20mph, 25mph gusts
  • Sea Temp 80°f
  • Ar Temp 80°f
  • Sea Pressure 1012.9mb
  •  Yucatan Basin - 120 Nm Ese Of Cozumel, Mx
  •  Yucatan Basin - 120 Nm Ese Of Cozumel, Mx

More Historic Weather Station data

Upgrade to MSW Pro to gain access to the past 30 days of data for over 8000 Wavebouys and Weather Stations around the globe.

Join Pro

Comparision Forecast

View Surf forecast
   
Qui 03/30 7:50 4ft 7s 4s 20 25 mph 1012.9mb 80f 80f
7:40  -   -   -  20 25 mph 1012.9mb 80f 80f
7:30  -   -   -  20 22 mph 1012.9mb 80f 80f
7:20  -   -   -  20 22 mph 1012.8mb 80f 80f
7:10  -   -   -  18 22 mph 1012.9mb 80f 80f
7:00  -   -   -  18 22 mph 1012.8mb 80f 80f
6:50 4.5ft 6s 5s 20 25 mph 1012.8mb 80f 80f
6:40  -   -   -  20 22 mph 1012.6mb 80f 80f
6:30  -   -   -  18 25 mph 1012.8mb 80f 80f
6:20  -   -   -  18 22 mph 1012.8mb 80f 80f
6:10  -   -   -  18 22 mph 1012.8mb 80f 80f
6:00  -   -   -  18 22 mph 1012.5mb 80f 80f
5:50 4.5ft 6s 5s 18 22 mph 1012.5mb 80f 80f
5:40 4.5ft  -  5s 18 22 mph 1012.5mb 80f 80f
5:30  -   -   -  18 22 mph 1012.4mb 80f 80f
5:20  -   -   -  18 22 mph 1012.1mb 80f 80f
5:10  -   -   -  18 22 mph 1012.1mb 80f 80f
5:00  -   -   -  20 22 mph 1012.1mb 80f 80f
4:50 4.5ft 6s 5s 18 22 mph 1012mb 80f 80f
4:40 4.5ft  -  5s 20 22 mph 1011.9mb 80f 80f
4:30  -   -   -  18 22 mph 1011.9mb 80f 80f
4:20  -   -   -  18 22 mph 1011.9mb 80f 80f
4:10  -   -   -  18 22 mph 1011.6mb 80f 80f
4:00  -   -   -  18 22 mph 1011.9mb 80f 80f
3:50 4.5ft 6s 5s 18 22 mph 1011.9mb 80f 80f
3:40 4.5ft  -  5s 16 20 mph 1011.9mb 80f 80f
3:30  -   -   -  16 20 mph 1012mb 80f 80f
3:20  -   -   -  18 22 mph 1012mb 80f 80f
3:10  -   -   -  18 20 mph 1011.9mb 80f 80f
3:00  -   -   -  18 20 mph 1011.8mb 80f 80f
2:50 4.5ft 6s 5s 18 22 mph 1011.8mb 80f 80f
2:40 4.5ft  -  5s 18 20 mph 1011.8mb 80f 80f
2:30  -   -   -  16 20 mph 1011.9mb 80f 80f
2:20  -   -   -  16 20 mph 1011.8mb 80f 80f
2:10  -   -   -  18 25 mph 1011.8mb 80f 80f
2:00  -   -   -  18 22 mph 1011.6mb 80f 80f
1:50 4.5ft 6s 5s 18 22 mph 1011.5mb 80f 80f
1:40 4.5ft  -  5s 18 22 mph 1011.6mb 80f 80f
1:30  -   -   -  18 22 mph 1011.8mb - 80f
1:20  -   -   -  20 25 mph 1011.6mb 80f 80f
1:10  -   -   -  20 25 mph 1011.8mb 80f 80f
1:00  -   -   -  20 25 mph 1011.9mb 80f 80f
12:50 4.5ft 6s 4s 20 25 mph 1011.9mb 80f 80f
12:40  -   -   -  20 25 mph 1012mb 80f 80f
12:30  -   -   -  20 22 mph 1012.1mb 80f 80f
12:20  -   -   -  18 22 mph 1012.1mb 80f 80f
12:10  -   -   -  20 25 mph 1012.3mb 80f 80f
12:00  -   -   -  18 25 mph 1012.4mb 80f 80f
Qua 03/29 11:50 4.5ft 6s 4s 20 25 mph 1012.4mb 80f 80f
11:40  -   -   -  20 25 mph 1012.5mb 80f 80f
11:30  -   -   -  20 25 mph 1012.8mb 80f 80f
11:20  -   -   -  20 25 mph 1012.8mb 80f 80f
11:10  -   -   -  20 25 mph 1012.8mb 80f 80f
11:00  -   -   -  20 25 mph 1013mb 80f 80f
10:50 4.5ft 6s 4s 20 27 mph 1013mb 80f 80f
10:40 4.5ft  -  4s 20 25 mph 1013.3mb 80f 80f
10:30  -   -   -  20 25 mph 1013.3mb 80f 80f
10:20  -   -   -  20 25 mph 1013.3mb 80f 80f
10:10  -   -   -  20 25 mph 1013.3mb 80f 80f
10:00  -   -   -  20 25 mph 1013.4mb 80f 80f
9:50 4ft 5s 4s 20 25 mph 1013.3mb 80f 80f
9:40  -   -   -  20 25 mph 1013.3mb 80f 80f
9:30  -   -   -  20 25 mph 1013.3mb 80f 80f
9:20  -   -   -  20 25 mph 1013.1mb 80f 80f
9:10  -   -   -  22 25 mph 1013.1mb 80f 80f
9:00  -   -   -  20 25 mph 1013.3mb 80f 80f
8:50 4ft 6s 4s 20 25 mph 1013.3mb 80f 80f
8:40 4ft  -  4s 20 25 mph 1013.3mb 80f 80f
8:30  -   -   -  20 25 mph 1013.1mb 80f 80f
8:20  -   -   -  20 25 mph 1013mb 80f 80f
8:10  -   -   -  18 25 mph 1013mb 80f 80f
8:00  -   -   -  18 22 mph 1013mb 80f 80f
7:50 3.5ft 5s 4s 18 22 mph 1013mb 80f 80f
7:40  -   -   -  16 22 mph 1013mb 80f 80f
7:30  -   -   -  16 20 mph 1013mb 80f 80f
7:20  -   -   -  18 22 mph 1012.8mb 80f 80f
7:10  -   -   -  18 20 mph 1012.5mb 80f 80f
7:00  -   -   -  18 22 mph 1012.5mb 80f 80f
6:50 3.5ft 5s 4s 18 22 mph 1012.4mb 80f 80f
6:40 3.5ft  -  4s 18 22 mph 1012.3mb 80f 80f
6:30  -   -   -  18 22 mph 1012.1mb 80f 80f
6:20  -   -   -  18 22 mph 1012.1mb 80f 80f
6:10  -   -   -  18 22 mph 1011.9mb 80f 80f
6:00  -   -   -  18 22 mph 1011.9mb 80f 80f
5:50 3.5ft 6s 4s 18 22 mph 1011.9mb 80f 80f
5:40  -   -   -  18 22 mph 1011.8mb 80f 80f
5:30  -   -   -  18 22 mph 1011.6mb 80f 80f
5:20  -   -   -  18 22 mph 1011.6mb 80f 80f
5:10  -   -   -  18 22 mph 1011.5mb 80f 80f
5:00  -   -   -  18 20 mph 1011.5mb 80f 80f
4:50 3.5ft 6s 4s 18 22 mph 1011.6mb 80f 80f
4:40  -   -   -  18 22 mph 1011.6mb 80f 80f
4:30  -   -   -  18 20 mph 1011.5mb 80f 80f
4:20  -   -   -  18 20 mph 1011.5mb 80f 80f
4:10  -   -   -  18 20 mph 1011.6mb 80f 80f
4:00  -   -   -  18 20 mph 1011.6mb 80f 80f
3:50 4ft 5s 4s 18 22 mph 1011.6mb 80f 80f
3:40  -   -   -  18 20 mph 1011.6mb 80f 80f
3:30  -   -   -  16 20 mph 1011.8mb 80f 80f
3:20  -   -   -  16 20 mph 1011.8mb 80f 80f
3:10  -   -   -  16 20 mph 1011.9mb 80f 80f
3:00  -   -   -  18 20 mph 1011.9mb 80f 80f
2:50 4ft 6s 4s 16 20 mph 1011.9mb 80f 80f
2:40  -   -   -  18 22 mph 1011.9mb 80f 80f
2:30  -   -   -  18 20 mph 1011.9mb 80f 80f
2:20  -   -   -  18 20 mph 1012mb 80f 80f
2:10  -   -   -  18 20 mph 1012mb 80f 80f
2:00  -   -   -  18 20 mph 1012mb 80f 80f
1:50 4ft 5s 4s 18 20 mph 1012mb 80f 80f
1:40 4ft  -  4s 18 22 mph 1012mb 80f 80f
1:30  -   -   -  18 22 mph 1012mb 80f 80f
1:20  -   -   -  18 22 mph 1012.1mb 80f 80f
1:10  -   -   -  18 22 mph 1012.3mb 80f 80f
1:00  -   -   -  20 22 mph 1012.4mb 80f 80f
12:50 4ft 5s 4s 20 22 mph 1012.5mb 80f 80f
12:40 4ft  -  4s 18 22 mph 1012.6mb 80f 80f
12:30  -   -   -  18 22 mph 1012.9mb 80f 80f
12:20  -   -   -  18 22 mph 1013mb 80f 80f
12:10  -   -   -  18 22 mph 1013.1mb 80f 80f
12:00  -   -   -  20 25 mph 1013.3mb 80f 80f
11:50 3.5ft 5s 4s 18 22 mph 1013.3mb 80f 80f
11:40  -   -   -  20 25 mph 1013.4mb 80f 80f
11:30  -   -   -  20 25 mph 1013.5mb 80f 80f
11:20  -   -   -  20 25 mph 1013.5mb 80f 80f
11:10  -   -   -  20 25 mph 1013.8mb 80f 80f
11:00  -   -   -  20 25 mph 1013.9mb 80f 80f
10:50 3.5ft 6s 4s 20 25 mph 1013.9mb 80f 80f
10:40  -   -   -  18 25 mph 1013.9mb 80f 80f
10:30  -   -   -  20 22 mph 1014mb 80f 80f
10:20  -   -   -  18 22 mph 1014mb 80f 80f
10:10  -   -   -  18 22 mph 1014.1mb 80f 80f
10:00  -   -   -  16 20 mph 1014.3mb 80f 80f
9:50 3.5ft 5s 4s 18 20 mph 1014.1mb 80f 80f
9:40 3.5ft  -  4s 18 22 mph 1014mb 80f 80f
9:30  -   -   -  18 20 mph 1014mb 80f 80f
9:20  -   -   -  18 20 mph 1014mb 80f 80f
9:10  -   -   -  18 20 mph 1014mb 80f 80f
9:00  -   -   -  18 22 mph 1014.1mb 80f 80f
8:50 3.5ft 6s 4s 18 20 mph 1014.1mb 80f 80f
8:40 3.5ft  -  4s 20 25 mph 1014mb 80f 80f
8:30  -   -   -  18 22 mph 1014mb 80f 80f
8:20  -   -   -  20 22 mph 1014mb 80f 80f
8:10  -   -   -  20 22 mph 1014mb 80f 80f
8:00  -   -   -  20 22 mph 1013.9mb 80f 80f
7:50 3.5ft 6s 4s 20 25 mph 1013.9mb 80f 80f
7:40 3.5ft  -  4s 20 25 mph 1013.6mb 80f 80f
7:30  -   -   -  20 22 mph 1013.5mb 80f 80f
7:20  -   -   -  20 25 mph 1013.5mb 80f 80f
7:10  -   -   -  18 25 mph 1013.5mb 80f 80f
7:00  -   -   -  20 25 mph 1013.4mb 80f 80f
6:50 3.5ft 6s 4s 20 22 mph 1013.3mb 80f 80f
6:40 3.5ft  -  4s 20 22 mph 1013.1mb 80f 80f
6:30  -   -   -  18 22 mph 1013.1mb 80f 80f
6:20  -   -   -  18 22 mph 1013mb 80f 79f
6:10  -   -   -  16 20 mph 1013mb 80f 79f
6:00  -   -   -  18 20 mph 1013mb 80f 79f
5:50 3ft 6s 4s 18 20 mph 1013mb 80f 79f
5:40 3ft  -  4s 16 22 mph 1013mb 80f 79f
5:30  -   -   -  18 20 mph 1012.8mb 80f 79f
5:20  -   -   -  18 20 mph 1012.6mb 80f 79f
5:10  -   -   -  18 20 mph 1012.5mb 80f 79f
5:00  -   -   -  18 20 mph 1012.5mb 80f 79f
4:50 3.5ft 5s 4s 16 20 mph 1012.3mb 80f 79f
4:40 3.5ft  -  4s 16 20 mph 1012.3mb 80f 79f
4:30  -   -   -  16 20 mph 1012.1mb 80f 79f
4:20  -   -   -  16 20 mph 1012.1mb 80f 79f
4:10  -   -   -  16 20 mph 1012mb 80f 79f
4:00  -   -   -  16 20 mph 1012mb 80f 79f
3:50 3ft 6s 4s 16 20 mph 1012mb - 79f
3:40  -   -   -  16 20 mph 1011.8mb 80f 79f
3:30  -   -   -  16 18 mph 1011.6mb 80f 79f
3:20  -   -   -  16 18 mph 1011.8mb 80f 79f
3:10  -   -   -  16 18 mph 1011.6mb 80f 79f
3:00  -   -   -  16 18 mph 1011.6mb 80f 79f
2:50 3.5ft 6s 4s 16 18 mph 1011.8mb 80f 79f
2:40 3.5ft  -  4s 16 18 mph 1011.8mb 80f 79f
2:30  -   -   -  16 18 mph 1011.6mb 80f 79f
2:20  -   -   -  16 20 mph 1011.6mb 80f 79f
2:10  -   -   -  16 20 mph 1011.8mb 80f 79f
2:00  -   -   -  16 20 mph 1012mb 80f 79f
1:50 3ft 6s 4s 16 20 mph 1011.9mb 80f 79f
1:40 3ft  -  4s 16 20 mph 1012mb 80f 79f
1:30  -   -   -  16 20 mph 1012.1mb 80f 79f
1:20  -   -   -  16 20 mph 1012.4mb 80f 79f
1:10  -   -   -  16 18 mph 1012.5mb 80f 79f
1:00  -   -   -  16 20 mph 1012.5mb 80f 79f
12:50 3ft 6s 4s 18 20 mph 1012.8mb 80f 79f
12:40 3ft  -  4s 16 20 mph 1012.8mb 80f 79f
12:30  -   -   -  18 20 mph 1013mb 80f 79f
12:20  -   -   -  16 20 mph 1013.3mb 80f 79f
12:10  -   -   -  16 18 mph 1013.4mb 80f 79f
12:00  -   -   -  16 20 mph 1013.5mb 80f 79f
Ter 03/28 11:50 3.5ft 6s 4s 16 18 mph 1013.5mb 80f 79f
11:40 3.5ft  -  4s 16 20 mph 1013.6mb 80f 79f
11:30  -   -   -  16 20 mph 1013.8mb 80f 79f
11:20  -   -   -  16 20 mph 1013.9mb 80f 79f
11:10  -   -   -  16 20 mph 1014mb 80f 79f
11:00  -   -   -  16 20 mph 1014mb 80f 80f
10:50 3ft 5s 4s 16 20 mph 1014mb 80f 80f
10:40 3ft  -  4s 18 20 mph 1014mb 80f 79f
10:30  -   -   -  18 22 mph 1014mb 80f 80f
10:20  -   -   -  18 20 mph 1014.1mb 80f 80f
10:10  -   -   -  18 20 mph 1014.1mb 80f 80f
10:00  -   -   -  18 20 mph 1014.1mb 80f 79f
9:50 3ft 5s 4s 16 20 mph 1014.3mb 80f 80f
9:40  -   -   -  18 20 mph 1014.1mb 80f 80f
9:30  -   -   -  18 20 mph 1014.1mb 80f 80f
9:20  -   -   -  18 22 mph 1014.3mb 80f 80f
9:10  -   -   -  18 20 mph 1014.1mb 80f 80f
9:00  -   -   -  18 20 mph 1014mb 80f 80f
8:50 3ft 6s 4s 18 20 mph 1014.1mb 80f 80f
8:40  -   -   -  18 20 mph 1014mb 80f 80f
8:30  -   -   -  16 20 mph 1013.9mb 80f 80f
8:20  -   -   -  18 20 mph 1013.8mb 80f 80f
8:10  -   -   -  18 20 mph 1013.5mb 80f 80f
8:00  -   -   -  16 20 mph 1013.5mb 80f 80f
7:50 3ft 5s 5s 16 20 mph 1013.5mb 80f 80f
7:40 3ft  -  5s 13 20 mph 1013.4mb 80f 79f
7:30  -   -   -  11 18 mph 1013.5mb 80f 79f
7:20  -   -   -  9 13 mph 1013.4mb 80f 78f
7:10  -   -   -  13 22 mph 1013.3mb 80f 79f
7:00  -   -   -  11 20 mph 1013mb 80f 80f
6:50 3.5ft 5s 5s 11 13 mph 1013mb 80f 80f
6:40 3.5ft  -  5s 11 13 mph 1013mb 80f 80f
6:30  -   -   -  11
mph
1013mb 80f 80f
6:20  -   -   -  9 13 mph 1013mb 80f 80f
6:10  -   -   -  11 13 mph 1013mb 80f 80f
6:00  -   -   -  11 16 mph 1012.9mb 80f 80f
5:50 3.5ft 6s 4s 13 16 mph 1012.8mb 80f 80f
5:40 3.5ft  -  4s 13 16 mph 1012.8mb 80f 80f
5:30  -   -   -  11 16 mph 1012.8mb 80f 80f
5:20  -   -   -  13 16 mph 1012.6mb 80f 80f
5:10  -   -   -  13 16 mph 1012.6mb 80f 80f
5:00  -   -   -  13 16 mph 1012.6mb 80f 80f
4:50 3.5ft 6s 5s 11 16 mph 1012.6mb 80f 80f
4:40 3.5ft  -  5s 13 16 mph 1012.6mb 80f 80f
4:30  -   -   -  11 16 mph 1012.5mb 80f 80f
4:20  -   -   -  13 16 mph 1012.5mb 80f 80f
4:10  -   -   -  13 16 mph 1012.5mb 80f 80f
4:00  -   -   -  11 16 mph 1012.5mb 80f 80f
3:50 3.5ft 6s 5s 13 16 mph 1012.5mb 80f 80f
3:40  -   -   -  11 13 mph 1012.5mb 80f 80f
3:30  -   -   -  13 16 mph 1012.5mb 80f 80f
3:20  -   -   -  11 16 mph 1012.5mb 80f 80f
3:10  -   -   -  13 16 mph 1012.5mb 80f 80f
3:00  -   -   -  13 16 mph 1012.6mb 80f 80f
2:50 3.5ft 6s 5s 13 16 mph 1012.6mb 80f 80f
1:50 4ft 6s 5s 13 18 mph 1013mb 80f 80f
12:50  -   -   -  16 18 mph 1013.9mb 80f 80f
11:50 4ft 7s 5s 16 22 mph 1014.5mb 80f 79f
9:30  -   -   -  18 20 mph 1015.1mb 80f 79f
9:20  -   -   -  18 22 mph 1015.1mb 80f 79f
9:10  -   -   -  18 20 mph 1015.1mb 80f 79f
9:00  -   -   -  18 22 mph 1015.1mb 80f 79f
8:50 4.5ft 7s 5s 18 25 mph 1015mb 80f 79f
8:40  -   -   -  18 22 mph 1015mb 80f 79f
8:30  -   -   -  18 22 mph 1015mb 80f 79f
8:20  -   -   -  18 22 mph 1015mb 80f 79f
8:10  -   -   -  18 22 mph 1014.9mb 80f 79f
8:00  -   -   -  18 22 mph 1014.8mb 80f 79f
7:50 4.5ft 7s 5s 18 22 mph 1014.6mb 80f 79f
7:40 4.5ft  -  5s 18 22 mph 1014.5mb 80f 79f
7:30  -   -   -  18 22 mph 1014.5mb 80f 79f
7:20  -   -   -  18 22 mph 1014.4mb 80f 79f
7:10  -   -   -  18 22 mph 1014.3mb - 79f
7:00  -   -   -  18 22 mph 1014mb 80f 79f
6:50 4ft 7s 5s 18 22 mph 1014mb 80f 79f
6:40 4ft  -  5s 18 22 mph 1013.9mb 80f 79f
6:30  -   -   -  18 22 mph 1013.8mb 80f 79f
6:20  -   -   -  18 22 mph 1013.6mb 80f 79f
6:10  -   -   -  18 22 mph 1013.5mb 80f 79f
6:00  -   -   -  18 22 mph 1013.5mb 80f 79f
5:50 4ft 7s 5s 18 20 mph 1013.3mb 80f 79f
5:40 4ft  -  5s 18 22 mph 1013.1mb 80f 79f
5:30  -   -   -  18 22 mph 1013mb 80f 79f
5:20  -   -   -  18 20 mph 1013mb 80f 79f
5:10  -   -   -  16 20 mph 1012.9mb 80f 79f
5:00  -   -   -  18 20 mph 1012.6mb 80f 79f
4:50 3.5ft 7s 5s 16 22 mph 1012.5mb 80f 79f
4:40  -   -   -  16 20 mph 1012.4mb 80f 79f
4:30  -   -   -  16 18 mph 1012.5mb 80f 79f
4:20  -   -   -  13 18 mph 1012.5mb 80f 79f
4:10  -   -   -  13 18 mph 1012.4mb 80f 79f
4:00  -   -   -  13 16 mph 1012.4mb 80f 79f
3:50 4.5ft 7s 5s 13 16 mph 1012.3mb 80f 79f
3:40  -   -   -  11 16 mph 1012.3mb 80f 79f
3:30  -   -   -  9 13 mph 1012.3mb 80f 79f
3:20  -   -   -  9
mph
1012.1mb 80f 78f
3:10  -   -   -  7 9 mph 1012.1mb 80f 78f
3:00  -   -   -  7 9 mph 1012.3mb 80f 78f
2:50 4ft 7s 5s 7 9 mph 1012.3mb 80f 78f
2:40 4ft  -  5s 7 9 mph 1012.1mb 80f 78f
2:30  -   -   -  7 9 mph 1012.1mb 80f 78f
2:20  -   -   -  7 9 mph 1012.1mb 80f 78f
2:10  -   -   -  9 11 mph 1012.1mb 80f 78f
2:00  -   -   -  9 11 mph 1012.4mb 80f 78f
1:50 4.5ft 7s 5s 9 11 mph 1012.5mb 80f 78f
1:40  -   -   -  9 11 mph 1012.5mb 80f 78f
1:30  -   -   -  9 11 mph 1012.5mb 80f 79f
1:20  -   -   -  9 13 mph 1012.8mb 80f 78f
1:10  -   -   -  11 13 mph 1012.9mb 80f 78f
1:00  -   -   -  11 13 mph 1012.9mb 80f 79f
12:50 4.5ft 7s 5s 11 13 mph 1013mb 80f 79f
12:40  -   -   -  11 13 mph 1013mb 80f 79f
12:30  -   -   -  11 13 mph 1013.1mb 80f 79f
12:20  -   -   -  11 16 mph 1013.3mb 80f 79f
12:10  -   -   -  11 13 mph 1013.3mb 80f 79f
12:00  -   -   -  13 16 mph 1013.5mb 80f 79f
Seg 03/27 11:50 4.5ft 7s 5s 13 18 mph 1013.5mb 80f 79f
11:40 4.5ft  -  5s 13 18 mph 1013.5mb 80f 79f
11:30  -   -   -  13 18 mph 1013.5mb 80f 79f
11:20  -   -   -  13 18 mph 1013.5mb 80f 79f
11:10  -   -   -  13 18 mph 1013.5mb 80f 79f
11:00  -   -   -  13 18 mph 1013.8mb 80f 79f
10:50 4.5ft 7s 5s 16 18 mph 1013.8mb 80f 79f
10:40  -   -   -  13 18 mph 1013.9mb 80f 79f
10:30  -   -   -  13 18 mph 1013.9mb 80f 79f
10:20  -   -   -  13 18 mph 1014mb 80f 79f
10:10  -   -   -  13 18 mph 1014mb 80f 79f
10:00  -   -   -  13 18 mph 1014.1mb 80f 79f
9:50 4.5ft 7s 5s 16 18 mph 1014.1mb 80f 80f
9:40 4.5ft  -  5s 16 18 mph 1014.1mb 80f 79f
9:30  -   -   -  16 18 mph 1014.3mb 80f 79f
9:20  -   -   -  13 18 mph 1014.1mb 80f 79f
9:10  -   -   -  16 18 mph 1014mb 80f 79f
9:00  -   -   -  13 18 mph 1014mb 80f 79f
8:50 4.5ft 6s 5s 16 18 mph 1014mb 80f 79f
8:40 4.5ft  -  5s 16 18 mph 1013.9mb 80f 79f
8:30  -   -   -  16 18 mph 1013.9mb 80f 79f
8:20  -   -   -  16 20 mph 1013.8mb 80f 79f
8:10  -   -   -  16 20 mph 1013.5mb 80f 79f
8:00  -   -   -  16 20 mph 1013.5mb 80f 79f
7:50 4.5ft 6s 5s 16 20 mph 1013.5mb 80f 79f
7:40 4.5ft  -  5s 18 20 mph 1013.4mb 80f 79f
7:30  -   -   -  18 20 mph 1013.3mb 80f 79f
7:20  -   -   -  18 22 mph 1013.1mb 80f 79f
7:10  -   -   -  18 22 mph 1013mb 80f 79f
7:00  -   -   -  20 22 mph 1013mb 80f 80f
6:50 4ft 6s 5s 18 22 mph 1012.9mb 80f 79f
6:40  -   -   -  18 20 mph 1012.9mb 80f 79f
6:30  -   -   -  16 18 mph 1012.8mb 80f 79f
6:20  -   -   -  16 20 mph 1012.6mb 80f 79f
6:10  -   -   -  13 18 mph 1012.5mb 80f 79f
6:00  -   -   -  16 18 mph 1012.5mb 80f 79f
5:50 4ft 6s 4s 16 18 mph 1012.5mb 80f 79f
5:40 4ft  -  4s 16 20 mph 1012.5mb 80f 79f
5:30  -   -   -  18 22 mph 1012.4mb 80f 79f
5:20  -   -   -  18 22 mph 1012.4mb 80f 79f
5:10  -   -   -  18 22 mph 1012.4mb 80f 79f
5:00  -   -   -  18 22 mph 1012.5mb 80f 79f
4:50 3.5ft 6s 4s 18 22 mph 1012.4mb 80f 79f
4:40  -   -   -  18 22 mph 1012.5mb 80f 79f
4:30  -   -   -  18 20 mph 1012.4mb 80f 79f
4:20  -   -   -  16 20 mph 1012.5mb 80f 79f
4:10  -   -   -  16 18 mph 1012.4mb 80f 79f
4:00  -   -   -  16 20 mph 1012.5mb 80f 79f
3:50 3.5ft 6s 4s 16 20 mph 1012.5mb 80f 79f
3:40 3.5ft  -  4s 16 20 mph 1012.6mb 80f 79f
3:30  -   -   -  16 18 mph 1012.6mb 80f 79f
3:20  -   -   -  16 20 mph 1012.9mb 80f 79f
3:10  -   -   -  16 20 mph 1012.8mb 80f 79f
3:00  -   -   -  16 20 mph 1012.9mb 80f 79f
2:50 3.5ft 6s 5s 16 20 mph 1013mb 80f 79f
2:40  -   -   -  16 18 mph 1013mb 80f 79f
2:30  -   -   -  16 20 mph 1013.1mb 80f 79f
2:20  -   -   -  16 18 mph 1013.3mb 80f 79f
2:10  -   -   -  16 18 mph 1013.4mb 80f 79f
2:00  -   -   -  13 16 mph 1013.5mb 80f 79f
1:50 3.5ft 6s 5s 13 18 mph 1013.8mb 80f 79f
1:40 3.5ft  -  5s 13 18 mph 1013.9mb 80f 79f
1:30  -   -   -  13 18 mph 1013.9mb - 79f
1:20  -   -   -  16 18 mph 1014mb 80f 79f
1:10  -   -   -  16 18 mph 1014mb 80f 79f
1:00  -   -   -  16 20 mph 1014.1mb 80f 79f
12:50 3.5ft 6s 4s 16 18 mph 1014.3mb 80f 79f
12:40 3.5ft  -  4s 16 20 mph 1014.5mb 80f 79f
12:30  -   -   -  16 20 mph 1014.5mb 80f 80f
12:20  -   -   -  16 18 mph 1014.5mb 80f 80f
12:10  -   -   -  16 18 mph 1014.6mb 80f 80f
12:00  -   -   -  13 18 mph 1015mb 80f 80f
11:50 4ft 6s 5s 16 18 mph 1015mb 80f 80f
11:40  -   -   -  13 18 mph 1015.1mb 80f 80f
11:30  -   -   -  13 18 mph 1015.5mb 80f 80f
11:20  -   -   -  16 18 mph 1015.4mb 80f 79f
11:10  -   -   -  16 20 mph 1015.4mb 80f 80f
11:00  -   -   -  16 18 mph 1015.5mb 80f 80f
10:50 3.5ft 7s 5s 13 18 mph 1015.5mb 80f 80f
10:40  -   -   -  16 18 mph 1015.6mb 80f 80f
10:30  -   -   -  13 18 mph 1015.8mb 80f 80f
10:20  -   -   -  13 16 mph 1015.8mb 80f 80f
10:10  -   -   -  13 18 mph 1015.9mb 80f 80f
10:00  -   -   -  13 16 mph 1015.9mb 80f 80f
9:50 4ft 7s 5s 11 16 mph 1015.9mb 80f 79f
9:40 4ft  -  5s 13 16 mph 1015.8mb 80f 80f
9:30  -   -   -  13 16 mph 1015.8mb 80f 80f
9:20  -   -   -  13 16 mph 1015.9mb 80f 80f
9:10  -   -   -  13 18 mph 1015.8mb 80f 80f
9:00  -   -   -  13 18 mph 1015.6mb 80f 80f
8:50 3.5ft 7s 5s 16 18 mph 1015.5mb 80f 80f
8:40 3.5ft  -  5s 16 20 mph 1015.5mb 80f 80f
8:30  -   -   -  13 18 mph 1015.5mb 80f 80f
8:20  -   -   -  13 18 mph 1015.5mb 80f 80f
8:10  -   -   -  16 18 mph 1015.4mb 80f 80f
8:00  -   -   -  13 18 mph 1015.1mb 80f 80f
7:50 3.5ft 7s 5s 16 20 mph 1015.1mb 80f 79f
7:40  -   -   -  16 18 mph 1015.1mb 80f 79f
7:30  -   -   -  13 18 mph 1015mb 80f 79f
7:20  -   -   -  16 18 mph 1014.9mb 80f 79f
7:10  -   -   -  16 18 mph 1014.8mb 80f 79f
7:00  -   -   -  16 18 mph 1014.6mb 80f 79f
6:50 3.5ft 7s 5s 16 18 mph 1014.5mb 80f 79f
6:40 3.5ft  -  5s 13 16 mph 1014.5mb 80f 79f
6:30  -   -   -  13 18 mph 1014.3mb 80f 79f
6:20  -   -   -  13 18 mph 1014.3mb 80f 79f
6:10  -   -   -  16 18 mph 1014mb - 79f
6:00  -   -   -  16 18 mph 1014mb 80f 79f
5:50 4ft 7s 5s 13 18 mph 1013.9mb 80f 79f
5:40 4ft  -  5s 16 18 mph 1013.5mb 80f 78f
5:30  -   -   -  16 18 mph 1013.5mb 80f 78f
5:20  -   -   -  16 18 mph 1013.3mb 80f 79f
5:10  -   -   -  16 20 mph 1013.1mb 80f 78f
5:00  -   -   -  16 20 mph 1013.1mb 80f 78f
4:50 3.5ft 7s 5s 16 22 mph 1013mb 80f 78f
4:40 3.5ft  -  5s 16 20 mph 1013mb 80f 78f
4:30  -   -   -  13 18 mph 1013mb 80f 78f
4:20  -   -   -  13 18 mph 1013mb 80f 78f
4:10  -   -   -  13 18 mph 1012.9mb 80f 78f
4:00  -   -   -  13 16 mph 1012.9mb 80f 78f
3:50 3.5ft 7s 5s 11 16 mph 1012.8mb 80f 78f
3:40 3.5ft  -  5s 11 13 mph 1012.9mb 80f 78f
3:30  -   -   -  11 16 mph 1012.8mb 80f 78f
3:20  -   -   -  13 16 mph 1012.8mb 80f 78f
3:10  -   -   -  13 16 mph 1012.9mb 80f 78f
3:00  -   -   -  13 16 mph 1012.9mb 80f 79f
2:50 3.5ft 7s 5s 13 16 mph 1013mb 80f 78f
2:40 3.5ft  -  5s 13 16 mph 1013mb 80f 79f
2:30  -   -   -  13 16 mph 1013mb 80f 78f
2:20  -   -   -  13 16 mph 1013mb 80f 78f
2:10  -   -   -  13 16 mph 1013mb 80f 79f
2:00  -   -   -  13 16 mph 1013mb 80f 78f
1:50 4ft 7s 5s 13 16 mph 1013mb 80f 79f
1:40 4ft  -  5s 13 16 mph 1013mb 80f 78f
1:30  -   -   -  13 16 mph 1013.1mb 80f 78f
1:20  -   -   -  13 16 mph 1013.4mb 80f 78f
1:10  -   -   -  11 16 mph 1013.5mb 80f 78f
1:00  -   -   -  13 16 mph 1013.6mb 80f 78f
12:50 3.5ft 7s 5s 13 16 mph 1013.8mb 80f 79f
12:40  -   -   -  11 13 mph 1013.9mb 80f 78f
12:30  -   -   -  11 13 mph 1014.1mb 80f 79f
12:20  -   -   -  11 13 mph 1014.3mb 80f 79f
12:10  -   -   -  11 16 mph 1014.5mb 80f 79f
12:00  -   -   -  11 13 mph 1014.5mb - 79f
Dom 03/26 11:50 4ft 7s 5s 11 13 mph 1014.5mb 80f 79f
11:40  -   -   -  11 16 mph 1014.6mb 80f 79f
11:30  -   -   -  11 13 mph 1014.8mb 80f 79f
11:20  -   -   -  11 16 mph 1014.9mb 80f 79f
11:10  -   -   -  11 16 mph 1014.9mb 80f 79f
11:00  -   -   -  13 16 mph 1015mb 80f 79f
10:50 4ft 7s 5s 13 16 mph 1015mb 80f 79f
10:40 4ft  -  5s 13 16 mph 1015mb 80f 79f
10:30  -   -   -  13 16 mph 1015mb 80f 79f
10:20  -   -   -  13 16 mph 1015mb 80f 79f
10:10  -   -   -  11 16 mph 1015.1mb 80f 79f
10:00  -   -   -  13 16 mph 1015.1mb 80f 79f
9:50 4.5ft 7s 5s 13 16 mph 1015.3mb 80f 79f
9:40  -   -   -  13 18 mph 1015.1mb 80f 79f
9:30  -   -   -  13 18 mph 1015.3mb 80f 79f
9:20  -   -   -  16 18 mph 1015.4mb 80f 79f
9:10  -   -   -  16 18 mph 1015.3mb 80f 79f
9:00  -   -   -  16 18 mph 1015.3mb 80f 79f
8:50 4.5ft 7s 5s 16 18 mph 1015.3mb 80f 79f
8:40 4.5ft  -  5s 13 18 mph 1015.3mb 80f 79f
8:30  -   -   -  16 18 mph 1015.3mb 80f 79f
8:20  -   -   -  16 18 mph 1015.4mb 80f 79f
8:10  -   -   -  16 20 mph 1015.4mb 80f 79f
8:00  -   -   -  13 18 mph 1015.4mb 80f 79f
7:50 4.5ft 8s 5s 13 16 mph 1015.3mb 80f 79f
7:40  -   -   -  13 18 mph 1015.1mb 80f 79f
7:30  -   -   -  13 18 mph 1015mb 80f 79f
7:20  -   -   -  13 18 mph 1015mb 80f 79f
7:10  -   -   -  13 18 mph 1014.9mb 80f 79f
7:00  -   -   -  13 16 mph 1014.8mb 80f 79f
6:50 4ft 6s 5s 13 16 mph 1014.6mb 80f 79f
6:40  -   -   -  13 16 mph 1014.5mb 80f 79f
6:30  -   -   -  13 16 mph 1014.5mb 80f 79f
6:20  -   -   -  11 13 mph 1014.5mb 80f 79f
6:10  -   -   -  11 16 mph 1014.5mb 80f 79f
6:00  -   -   -  11 13 mph 1014.5mb 80f 79f
5:50 3.5ft 7s 5s 11 16 mph 1014.5mb 80f 79f
5:40 3.5ft  -  5s 11 13 mph 1014.5mb 80f 79f
5:30  -   -   -  11 13 mph 1014.4mb - 79f
5:20  -   -   -  11 13 mph 1014.3mb 80f 79f
5:10  -   -   -  11 13 mph 1014.1mb 80f 79f
5:00  -   -   -  11 13 mph 1014.1mb 80f 79f
4:50 3.5ft 6s 5s 13 16 mph 1014.1mb 80f 79f
4:40 3.5ft  -  5s 13 18 mph 1014mb 80f 79f
4:30  -   -   -  13 16 mph 1014mb 80f 79f
4:20  -   -   -  13 18 mph 1014mb 80f 79f
4:10  -   -   -  13 16 mph 1013.9mb 80f 79f
4:00  -   -   -  13 18 mph 1013.9mb 80f 79f
3:50 3.5ft 6s 5s 16 18 mph 1013.9mb 80f 79f
3:40  -   -   -  13 18 mph 1013.9mb 80f 79f
3:30  -   -   -  13 16 mph 1013.9mb 80f 79f
3:20  -   -   -  13 18 mph 1013.9mb 80f 79f
3:10  -   -   -  13 18 mph 1013.9mb 80f 79f
3:00  -   -   -  13 16 mph 1014mb 80f 78f
2:50 3.5ft 7s 5s 13 18 mph 1013.9mb 80f 79f
2:40 3.5ft  -  5s 13 18 mph 1014mb 80f 79f